Location: Unspecified
(0.0000°N, 0.0000°E)
Time: 09:22:35
(UTC+01:00)

Ariane H10+ - Visible Passes

Search period start: 26 January 2015 00:00
Search period end: 05 February 2015 00:00
Orbit: 334 x 31760 km, 6.9° (Epoch: 25 January)

Date Brightness Start Highest point End Pass type
(mag) Time Alt. Az. Time Alt. Az. Time Alt. Az.
26 Jan 6.3 05:44:23 10° W 13:57:50 67° NNW 14:04:10 10° ENE visible
26 Jan 6.9 23:41:33 10° W 00:11:53 57° ESE 08:16:13 10° E visible
28 Jan 7.4 04:03:26 30° W 12:12:51 80° N 12:25:09 10° ENE visible
28 Jan 5.6 22:02:23 10° W 22:08:48 87° S 06:24:26 10° E visible
30 Jan 8.5 02:29:18 63° WSW 03:18:58 81° S 10:44:57 10° E visible
30 Jan 4.0 20:23:36 10° WNW 20:27:06 76° N 20:36:28 20° E visible
30 Jan 4.0 20:23:37 10° WNW 20:27:06 76° N 20:36:19 20° E visible
31 Jan 5.7 06:46:01 10° W 14:42:30 56° NNW 14:46:58 10° ENE visible
01 Feb 7.4 00:25:04 10° W 00:55:08 74° SE 09:02:34 10° E visible
02 Feb 6.9 04:46:38 18° W 12:59:33 73° N 13:07:57 10° ENE visible
02 Feb 6.4 22:45:01 10° W 23:20:57 41° ESE 07:15:35 10° E visible
04 Feb 8.0 03:12:27 48° WSW 11:10:49 83° N 11:28:05 10° ENE visible
04 Feb 4.9 21:05:40 10° W 21:10:32 89° S 21:56:56 10° E visible
04 Feb 4.9 21:05:41 10° W 21:10:32 89° S 21:56:56 10° E visible
